Stations météo

réclame
Mon MeteoGroup
Spangdahlem, Allemagne (10607): Température de l'air & dewpoint: 27.05.2020 01:00:00 - 02.06.2020 01:00:00 (CEST)Spangdahlem, Allemagne (10607): Vitesse du vent: 27.05.2020 01:00:00 - 02.06.2020 01:00:00 (CEST)Spangdahlem, Allemagne (10607): Direction du vent: 27.05.2020 01:00:00 - 02.06.2020 01:00:00 (CEST)Spangdahlem, Allemagne (10607): reduced air pressure: 27.05.2020 01:00:00 - 02.06.2020 01:00:00 (CEST)Spangdahlem, Allemagne (10607): visibility: 27.05.2020 01:00:00 - 02.06.2020 01:00:00 (CEST)
Date & Time tt [°C] td [°C] ff [km/h] ff [knt] dd ppp [hPa] vv [km]
02.06.2020 01:00:00 16,4 5,7 11 6 ENE 1017,6 10
02.06.2020 00:00:00 17,2 6,4 9 5 ENE 1018,0 10
01.06.2020 23:00:00 17,5 7,0 15 8 NE 1017,6 10
01.06.2020 22:00:00 18,4 6,9 13 7 NE 1017,5 10
01.06.2020 21:00:00 21,1 7,3 16 9 ENE 1017,0 10
01.06.2020 20:00:00 23,0 6,7 13 7 ESE 1017,3 10
01.06.2020 19:00:00 24,1 6,4 21 11 E 1017,1 10
01.06.2020 18:00:00 24,4 5,7 16 9 ENE 1017,6 10
01.06.2020 17:00:00 24,5 5,3 18 10 ENE 1017,8 10
01.06.2020 16:00:00 24,6 5,9 9 5 E 1018,1 10
01.06.2020 15:00:00 23,8 6,1 22 12 ENE 1018,5 10
01.06.2020 14:00:00 23,4 6,6 16 9 ESE 1018,8 10
01.06.2020 13:00:00 22,5 7,8 21 11 E 1019,2 10
01.06.2020 12:00:00 21,4 7,9 16 9 E 1019,3 10
01.06.2020 11:00:00 19,8 7,8 24 13 E 1019,7 10
01.06.2020 10:00:00 18,6 7,4 24 13 ENE 1019,7 10
01.06.2020 09:00:00 16,6 6,7 24 13 ENE 1019,7 10
01.06.2020 08:00:00 14,6 5,7 13 7 ENE 1019,3 10
01.06.2020 07:00:00 12,5 5,2 0 0 N 1019,5 10
01.06.2020 06:00:00 10,7 4,6 5 3 NNW 1019,6 10
01.06.2020 05:00:00 10,8 4,3 0 0 N 1019,5 10
01.06.2020 04:00:00 11,2 4,2 11 6 ENE 1019,5 10
01.06.2020 03:00:00 12,0 4,5 13 7 ENE 1019,8 10
01.06.2020 02:00:00 10,6 1,9 11 6 NE 1020,1 10
01.06.2020 01:00:00 13,1 4,5 11 6 E 1020,0 10
01.06.2020 00:00:00 12,3 4,3 13 7 ENE 1020,0 10
31.05.2020 23:00:00 14,1 3,8 15 8 ENE 1020,0 10
31.05.2020 22:00:00 15,3 4,0 16 9 ENE 1019,6 10
31.05.2020 21:00:00 16,9 4,2 18 10 NE 1019,1 10
31.05.2020 20:00:00 18,2 4,7 22 12 E 1018,6 10
31.05.2020 19:00:00 19,2 4,9 21 11 ENE 1018,6 10
31.05.2020 18:00:00 18,8 4,2 24 13 ENE 1018,7 10
31.05.2020 17:00:00 20,1 2,9 13 7 E 1018,6 10
31.05.2020 16:00:00 20,0 2,8 22 12 ENE 1018,6 10
31.05.2020 15:00:00 19,4 3,1 26 14 ENE 1019,1 10
31.05.2020 14:00:00 18,6 2,8 18 10 ENE 1019,3 10
31.05.2020 13:00:00 17,9 3,0 22 12 ENE 1019,6 10
31.05.2020 12:00:00 17,4 3,7 16 9 E 1019,8 10
31.05.2020 11:00:00 16,5 4,2 22 12 ENE 1020,0 10
31.05.2020 10:00:00 15,7 4,1 15 8 ENE 1019,8 10
31.05.2020 09:00:00 14,2 4,8 15 8 ENE 1020,0 10
31.05.2020 08:00:00 12,5 4,2 9 5 NE 1019,5 10
31.05.2020 07:00:00 10,8 4,0 0 0 N 1020,0 10
31.05.2020 06:00:00 9,4 2,5 0 0 N 1019,6 10
31.05.2020 05:00:00 9,2 2,1 9 5 ENE 1019,6 10
31.05.2020 04:00:00 9,5 2,1 13 7 NE 1019,6 10
31.05.2020 03:00:00 9,7 2,1 11 6 NE 1020,0 10
31.05.2020 02:00:00 10,6 1,9 11 6 NE 1020,1 10
31.05.2020 01:00:00 11,0 2,0 13 7 NE 1020,1 10
31.05.2020 00:00:00 11,6 2,1 13 7 NE 1020,3 10
30.05.2020 23:00:00 13,7 2,6 18 10 ENE 1020,1 10
30.05.2020 22:00:00 15,1 2,6 13 7 ENE 1019,5 10
30.05.2020 21:00:00 16,9 2,8 16 9 E 1019,1 10
30.05.2020 20:00:00 18,6 2,4 21 11 E 1018,8 10
30.05.2020 19:00:00 19,4 3,5 22 12 ENE 1018,9 10
30.05.2020 18:00:00 20,4 2,7 22 12 ENE 1019,3 10
30.05.2020 17:00:00 20,6 2,9 18 10 NE 1019,6 10
30.05.2020 16:00:00 21,0 3,0 24 13 ENE 1019,8 10
30.05.2020 15:00:00 20,7 2,5 21 11 NE 1020,1 10
30.05.2020 14:00:00 20,4 2,2 22 12 NE 1020,5 10
30.05.2020 13:00:00 20,0 2,8 21 11 ENE 1020,8 10
30.05.2020 12:00:00 18,9 3,1 28 15 E 1021,2 10
30.05.2020 11:00:00 18,1 3,6 24 13 ENE 1021,8 10
30.05.2020 10:00:00 16,7 3,7 18 10 E 1021,8 10
30.05.2020 09:00:00 14,9 3,4 18 10 E 1021,8 10
30.05.2020 08:00:00 13,0 3,1 16 9 E 1021,8 10
30.05.2020 07:00:00 11,2 2,5 16 9 ENE 1021,7 10
30.05.2020 06:00:00 10,0 1,6 15 8 NE 1021,7 10
30.05.2020 05:00:00 9,8 1,7 13 7 NE 1021,7 10
30.05.2020 04:00:00 10,3 1,9 13 7 ENE 1021,7 10
30.05.2020 03:00:00 10,9 2,0 13 7 ENE 1021,8 10
30.05.2020 02:00:00 11,5 1,7 16 9 ENE 1021,8 10
30.05.2020 01:00:00 12,0 1,0 16 9 ENE 1022,0 10
30.05.2020 00:00:00 12,7 1,4 11 6 ENE 1021,8 10
29.05.2020 23:00:00 13,8 1,8 9 5 ENE 1021,5 10
29.05.2020 22:00:00 14,6 1,8 13 7 ENE 1021,5 10
29.05.2020 21:00:00 17,2 2,0 13 7 E 1021,5 10
29.05.2020 20:00:00 18,9 2,7 18 10 E 1021,5 10
29.05.2020 19:00:00 19,9 2,7 21 11 E 1022,0 10
29.05.2020 18:00:00 20,3 2,6 18 10 NE 1022,2 10
29.05.2020 17:00:00 20,9 3,1 26 14 NE 1022,7 10
29.05.2020 16:00:00 20,6 2,9 16 9 ENE 1023,4 10
29.05.2020 15:00:00 20,3 2,6 21 11 E 1023,7 10
29.05.2020 14:00:00 20,0 3,2 15 8 NNE 1024,4 10
29.05.2020 13:00:00 18,6 4,0 21 11 ENE 1025,1 10
29.05.2020 12:00:00 18,5 3,1 21 11 E 1025,6 10
29.05.2020 11:00:00 17,5 4,4 22 12 E 1025,9 10
29.05.2020 10:00:00 16,0 4,1 21 11 E 1026,3 10
29.05.2020 09:00:00 14,2 4,2 15 8 ENE 1026,4 10
29.05.2020 08:00:00 12,3 3,5 13 7 ENE 1026,4 10
29.05.2020 07:00:00 10,0 2,8 9 5 E 1026,4 10
29.05.2020 06:00:00 8,4 2,0 13 7 ENE 1026,6 10
29.05.2020 05:00:00 9,3 1,9 16 9 ENE 1026,4 10
29.05.2020 04:00:00 9,9 1,8 13 7 ENE 1026,8 10
29.05.2020 03:00:00 10,3 1,7 16 9 NE 1026,8 10
29.05.2020 02:00:00 10,7 1,2 15 8 NE 1027,1 10
29.05.2020 01:00:00 11,8 1,4 18 10 NE 1027,1 10
29.05.2020 00:00:00 13,2 1,2 22 12 NE 1027,0 10
28.05.2020 23:00:00 14,5 0,7 18 10 NNE 1027,0 10
28.05.2020 22:00:00 15,3 0,3 15 8 NNE 1026,8 10
28.05.2020 21:00:00 16,8 0,0 13 7 N 1026,3 10
28.05.2020 20:00:00 18,7 -0,7 18 10 NNE 1026,3 10
28.05.2020 19:00:00 19,9 1,3 16 9 NE 1026,6 10
28.05.2020 18:00:00 20,6 -0,1 24 13 NNE 1026,8 10
28.05.2020 17:00:00 20,9 0,7 22 12 NE 1027,1 10
28.05.2020 16:00:00 20,8 2,6 29 16 ENE 1027,8 10
28.05.2020 15:00:00 20,0 2,0 22 12 NNE 1028,2 10
28.05.2020 14:00:00 19,9 2,3 22 12 NE 1028,5 10
28.05.2020 13:00:00 18,8 4,9 26 14 E 1028,9 10
28.05.2020 12:00:00 18,0 5,2 22 12 ENE 1029,2 10
28.05.2020 11:00:00 16,9 5,8 26 14 NE 1029,5 10
28.05.2020 10:00:00 15,8 6,8 22 12 ENE 1029,9 10
28.05.2020 09:00:00 14,1 6,2 22 12 ENE 1029,9 10
28.05.2020 08:00:00 12,8 5,5 21 11 ENE 1029,5 10
28.05.2020 07:00:00 12,3 6,1 5 3 NE 1029,2 10
28.05.2020 06:00:00 12,2 7,3 15 8 NNE 1028,7 10
28.05.2020 05:00:00 13,3 8,6 13 7 NNE 1028,7 10
28.05.2020 04:00:00 13,7 8,5 9 5 NNE 1028,7 10
28.05.2020 03:00:00 13,9 7,9 8 4 NE 1029,0 10
28.05.2020 02:00:00 14,3 7,6 9 5 N 1029,0 10
28.05.2020 01:00:00 15,1 7,6 11 6 N 1029,4 10
28.05.2020 00:00:00 15,5 8,2 9 5 N 1029,4 10
27.05.2020 23:00:00 16,6 8,0 0 0 N 1029,4 10
27.05.2020 22:00:00 17,6 7,9 11 6 N 1029,4 10
27.05.2020 21:00:00 19,4 7,5 13 7 N 1028,9 10
27.05.2020 20:00:00 20,9 6,0 15 8 N 1028,9 10
27.05.2020 19:00:00 22,0 6,0 11 6 NE 1028,9 10
27.05.2020 18:00:00 23,5 6,3 5 3 ENE 1029,2 10
27.05.2020 17:00:00 22,7 6,0 5 3 S 1029,3 10
27.05.2020 16:00:00 22,2 6,0 5 3 E 1029,8 10
27.05.2020 15:00:00 21,8 5,6 0 0 N 1030,4 10
27.05.2020 14:00:00 21,1 6,2 5 3 SE 1030,9 10
27.05.2020 13:00:00 20,2 5,8 5 3 ENE 1031,7 10
27.05.2020 12:00:00 19,2 5,6 5 3 ENE 1032,1 10
27.05.2020 11:00:00 18,2 6,1 0 0 N 1032,4 10
27.05.2020 10:00:00 17,5 6,1 0 0 N 1032,3 10
27.05.2020 09:00:00 15,2 6,7 0 0 N 1032,4 10
27.05.2020 08:00:00 12,5 7,2 0 0 N 1032,7 10
27.05.2020 07:00:00 10,7 6,1 0 0 N 1032,4 10
27.05.2020 06:00:00 6,5 4,8 0 0 N 1032,4 10
27.05.2020 05:00:00 9,1 5,1 0 0 N 1032,2 10
27.05.2020 04:00:00 8,3 5,6 0 0 N 1032,2 10
27.05.2020 03:00:00 10,3 5,1 0 0 N 1032,4 10
27.05.2020 02:00:00 12,0 5,6 0 0 N 1032,4 10
27.05.2020 01:00:00 11,1 6,0 0 0 N 1032,9 10

tt = Température de l'air
td = dewpoint
ff = Vitesse du vent
dd = Direction du vent
ppp = reduced air pressure
vv = visibility

stations d'obs. à proximité